GFSFLT2_prec_precacc6_009.txt.gz
Total_Precipitation_Accumulation
0.02 0.03 0.05 0.06 0.06 0.06 0.05 0.03 0.03 0.03 0.03 0.03 0.03 0.02 0.01 0.01 0.00 0.00 0.00 0.00 0.00 0.00 0.00 0.00 0.00 0.00 0.00
0.05 0.08 0.08 0.08 0.07 0.08 0.08 0.07 0.05 0.04 0.04 0.04 0.05 0.05 0.03 0.01 0.00 0.00 0.00 0.00 0.00 0.00 0.00 0.00 0.00 0.00 0.00
0.09 0.08 0.06 0.07 0.10 0.14 0.13 0.12 0.11 0.14 0.14 0.06 0.05 0.06 0.03 0.01 0.00 0.00 0.00 0.00 0.00 0.00 0.00 0.00 0.00 0.00 0.00
0.12 0.08 0.08 0.07 0.11 0.13 0.11 0.12 0.12 0.11 0.15 0.08 0.04 0.03 0.02 0.01 0.00 0.00 0.00 0.00 0.00 0.00 0.00 0.00 0.00 0.00 0.00
0.21 0.25 0.30 0.24 0.21 0.18 0.16 0.14 0.13 0.11 0.10 0.08 0.06 0.06 0.03 0.02 0.03 0.02 0.00 0.00 0.00 0.00 0.00 0.00 0.00 0.00 0.00
0.31 0.39 0.34 0.34 0.26 0.25 0.27 0.33 0.24 0.09 0.07 0.10 0.08 0.07 0.04 0.03 0.03 0.00 0.00 0.00 0.00 0.00 0.00 0.00 0.00 0.00 0.00
0.27 0.28 0.28 0.24 0.20 0.25 0.27 0.31 0.29 0.15 0.12 0.15 0.11 0.11 0.10 0.05 0.02 0.00 0.00 0.00 0.00 0.00 0.00 0.00 0.00 0.00 0.00
0.19 0.22 0.27 0.35 0.46 0.51 0.56 0.62 0.40 0.22 0.17 0.14 0.08 0.07 0.05 0.01 0.00 0.00 0.00 0.00 0.00 0.00 0.00 0.00 0.00 0.00 0.00
0.22 0.29 0.30 0.30 0.34 0.43 0.45 0.38 0.34 0.20 0.13 0.10 0.07 0.05 0.03 0.01 0.00 0.00 0.00 0.00 0.00 0.00 0.00 0.00 0.00 0.00 0.00
0.22 0.30 0.33 0.34 0.38 0.32 0.32 0.43 0.43 0.30 0.16 0.12 0.08 0.06 0.04 0.01 0.00 0.00 0.00 0.00 0.00 0.00 0.00 0.00 0.00 0.00 0.00
0.17 0.25 0.31 0.33 0.39 0.47 0.53 0.56 0.49 0.39 0.24 0.16 0.09 0.04 0.01 0.00 0.00 0.00 0.00 0.00 0.00 0.00 0.00 0.00 0.00 0.00 0.00
0.24 0.36 0.38 0.42 0.49 0.52 0.46 0.36 0.27 0.24 0.20 0.12 0.06 0.01 0.00 0.00 0.00 0.00 0.00 0.00 0.00 0.00 0.00 0.00 0.00 0.00 0.00
0.36 0.59 0.61 0.60 0.56 0.42 0.31 0.22 0.15 0.14 0.12 0.05 0.01 0.00 0.00 0.00 0.00 0.00 0.00 0.00 0.00 0.00 0.00 0.00 0.00 0.00 0.00
0.29 0.39 0.48 0.42 0.29 0.24 0.24 0.24 0.21 0.16 0.05 0.00 0.00 0.00 0.00 0.00 0.00 0.00 0.00 0.00 0.00 0.00 0.00 0.00 0.00 0.00 0.00
0.24 0.31 0.44 0.43 0.30 0.26 0.25 0.23 0.15 0.07 0.01 0.00 0.00 0.00 0.00 0.00 0.00 0.00 0.00 0.00 0.00 0.00 0.00 0.00 0.00 0.00 0.00
0.33 0.34 0.35 0.36 0.41 0.45 0.34 0.21 0.07 0.01 0.00 0.00 0.00 0.00 0.00 0.00 0.00 0.00 0.00 0.00 0.00 0.00 0.00 0.00 0.00 0.00 0.00
0.46 0.41 0.35 0.40 0.47 0.38 0.23 0.10 0.02 0.00 0.00 0.00 0.00 0.00 0.00 0.00 0.00 0.00 0.00 0.00 0.00 0.00 0.00 0.00 0.00 0.00 0.00

GFSFLT2_prec_precacc6_012.txt.gz
Total_Precipitation_Accumulation
0.03 0.04 0.04 0.02 0.02 0.04 0.04 0.03 0.03 0.04 0.04 0.04 0.05 0.06 0.05 0.04 0.03 0.02 0.02 0.02 0.01 0.01 0.00 0.00 0.00 0.00 0.00
0.01 0.03 0.03 0.03 0.02 0.03 0.06 0.07 0.09 0.08 0.07 0.06 0.07 0.11 0.13 0.13 0.11 0.06 0.03 0.03 0.02 0.02 0.00 0.00 0.00 0.00 0.00
0.09 0.06 0.05 0.04 0.05 0.07 0.09 0.11 0.12 0.16 0.19 0.17 0.16 0.17 0.19 0.17 0.16 0.16 0.15 0.08 0.03 0.01 0.00 0.00 0.00 0.00 0.00
0.11 0.07 0.07 0.08 0.11 0.15 0.17 0.20 0.25 0.23 0.22 0.23 0.23 0.22 0.20 0.16 0.16 0.16 0.13 0.08 0.04 0.01 0.00 0.00 0.00 0.00 0.00
0.18 0.21 0.28 0.30 0.25 0.27 0.34 0.31 0.28 0.22 0.18 0.18 0.20 0.22 0.20 0.18 0.16 0.15 0.15 0.14 0.08 0.02 0.00 0.00 0.00 0.00 0.00
0.18 0.30 0.29 0.29 0.25 0.28 0.35 0.46 0.45 0.26 0.22 0.31 0.35 0.40 0.37 0.30 0.24 0.18 0.14 0.10 0.05 0.01 0.00 0.00 0.00 0.00 0.00
0.11 0.16 0.21 0.19 0.17 0.18 0.25 0.33 0.34 0.27 0.30 0.39 0.30 0.30 0.30 0.33 0.33 0.23 0.15 0.06 0.02 0.01 0.00 0.00 0.00 0.00 0.00
0.03 0.04 0.08 0.16 0.34 0.47 0.57 0.66 0.53 0.38 0.34 0.33 0.24 0.27 0.29 0.30 0.26 0.16 0.10 0.06 0.03 0.01 0.00 0.00 0.00 0.00 0.00
0.04 0.10 0.12 0.15 0.21 0.36 0.48 0.45 0.42 0.32 0.24 0.25 0.21 0.22 0.25 0.22 0.16 0.10 0.07 0.03 0.01 0.00 0.00 0.00 0.00 0.00 0.00
0.02 0.03 0.05 0.10 0.19 0.20 0.26 0.37 0.44 0.41 0.32 0.32 0.29 0.25 0.26 0.21 0.17 0.13 0.08 0.02 0.00 0.00 0.00 0.00 0.00 0.00 0.00
0.01 0.03 0.06 0.08 0.13 0.20 0.43 0.67 0.69 0.61 0.42 0.38 0.34 0.30 0.29 0.21 0.15 0.09 0.02 0.00 0.00 0.00 0.00 0.00 0.00 0.00 0.00
0.02 0.04 0.07 0.13 0.26 0.39 0.47 0.54 0.51 0.47 0.43 0.36 0.33 0.31 0.26 0.18 0.10 0.03 0.00 0.00 0.00 0.00 0.00 0.00 0.00 0.00 0.00
0.09 0.16 0.21 0.37 0.46 0.43 0.39 0.35 0.30 0.33 0.35 0.29 0.24 0.22 0.14 0.06 0.01 0.00 0.00 0.00 0.00 0.00 0.00 0.00 0.00 0.00 0.00
0.16 0.21 0.34 0.44 0.39 0.41 0.38 0.36 0.40 0.43 0.31 0.15 0.07 0.04 0.01 0.00 0.00 0.00 0.00 0.00 0.00 0.00 0.00 0.00 0.00 0.00 0.00
0.15 0.20 0.36 0.48 0.47 0.45 0.40 0.39 0.31 0.26 0.17 0.05 0.00 0.00 0.00 0.00 0.00 0.00 0.00 0.00 0.00 0.00 0.00 0.00 0.00 0.00 0.00
0.14 0.19 0.27 0.40 0.49 0.58 0.52 0.35 0.19 0.08 0.02 0.00 0.00 0.00 0.00 0.00 0.00 0.00 0.00 0.00 0.00 0.00 0.00 0.00 0.00 0.00 0.00
0.17 0.21 0.27 0.40 0.50 0.51 0.40 0.19 0.05 0.00 0.00 0.00 0.00 0.00 0.00 0.00 0.00 0.00 0.00 0.00 0.00 0.00 0.00 0.00 0.00 0.00 0.00

GFSFLT2_prec_precacc6_015.txt.gz
Total_Precipitation_Accumulation
0.03 0.05 0.06 0.04 0.02 0.03 0.02 0.02 0.01 0.01 0.02 0.04 0.07 0.07 0.06 0.04 0.03 0.03 0.04 0.05 0.05 0.05 0.04 0.03 0.02 0.01 0.00
0.01 0.02 0.03 0.02 0.03 0.04 0.03 0.04 0.06 0.06 0.06 0.06 0.07 0.10 0.16 0.16 0.14 0.11 0.09 0.09 0.10 0.11 0.09 0.06 0.04 0.05 0.02
0.03 0.03 0.02 0.03 0.05 0.05 0.06 0.06 0.06 0.07 0.09 0.17 0.19 0.23 0.30 0.31 0.25 0.24 0.28 0.28 0.26 0.24 0.21 0.17 0.13 0.07 0.02
0.04 0.03 0.03 0.05 0.09 0.12 0.13 0.14 0.17 0.18 0.18 0.24 0.26 0.28 0.29 0.35 0.37 0.35 0.31 0.33 0.35 0.31 0.24 0.18 0.13 0.06 0.02
0.02 0.02 0.03 0.11 0.15 0.20 0.27 0.22 0.18 0.13 0.09 0.13 0.19 0.25 0.29 0.32 0.35 0.33 0.33 0.37 0.39 0.33 0.24 0.16 0.10 0.05 0.02
0.02 0.01 0.01 0.03 0.07 0.14 0.18 0.22 0.25 0.19 0.16 0.22 0.28 0.38 0.41 0.43 0.41 0.40 0.39 0.33 0.31 0.28 0.22 0.15 0.10 0.05 0.02
0.01 0.00 0.01 0.02 0.06 0.07 0.09 0.11 0.10 0.14 0.22 0.28 0.24 0.27 0.30 0.40 0.50 0.45 0.43 0.35 0.29 0.23 0.16 0.10 0.07 0.05 0.03
0.01 0.01 0.01 0.02 0.05 0.08 0.11 0.14 0.21 0.20 0.20 0.22 0.18 0.25 0.31 0.42 0.54 0.42 0.33 0.30 0.26 0.20 0.14 0.11 0.09 0.06 0.03
0.02 0.02 0.02 0.02 0.03 0.06 0.10 0.13 0.15 0.15 0.15 0.19 0.20 0.25 0.32 0.36 0.43 0.36 0.26 0.23 0.23 0.20 0.16 0.11 0.06 0.02 0.01
0.01 0.01 0.01 0.01 0.03 0.04 0.08 0.15 0.17 0.20 0.18 0.27 0.32 0.30 0.35 0.31 0.36 0.41 0.33 0.26 0.21 0.17 0.11 0.05 0.02 0.00 0.00
0.00 0.00 0.00 0.01 0.02 0.06 0.17 0.36 0.41 0.36 0.26 0.36 0.40 0.39 0.44 0.36 0.35 0.37 0.29 0.22 0.16 0.10 0.06 0.03 0.01 0.00 0.00
0.01 0.01 0.02 0.02 0.05 0.09 0.19 0.30 0.35 0.35 0.35 0.40 0.43 0.42 0.40 0.37 0.33 0.32 0.26 0.16 0.07 0.03 0.01 0.00 0.00 0.00 0.00
0.03 0.03 0.05 0.12 0.18 0.24 0.30 0.34 0.35 0.39 0.41 0.39 0.37 0.40 0.31 0.22 0.17 0.15 0.12 0.08 0.03 0.01 0.00 0.00 0.00 0.00 0.00
0.09 0.06 0.13 0.22 0.29 0.41 0.48 0.46 0.44 0.45 0.43 0.31 0.23 0.16 0.09 0.07 0.06 0.06 0.04 0.03 0.01 0.00 0.00 0.00 0.00 0.00 0.00
0.09 0.09 0.15 0.23 0.36 0.46 0.52 0.45 0.36 0.34 0.32 0.20 0.09 0.04 0.02 0.01 0.01 0.01 0.01 0.00 0.00 0.00 0.00 0.00 0.00 0.00 0.00
0.09 0.12 0.16 0.24 0.33 0.45 0.52 0.37 0.29 0.24 0.16 0.09 0.04 0.01 0.00 0.00 0.00 0.00 0.00 0.00 0.00 0.00 0.00 0.00 0.00 0.00 0.00
0.12 0.16 0.19 0.24 0.32 0.41 0.38 0.25 0.17 0.09 0.03 0.01 0.00 0.00 0.00 0.00 0.00 0.00 0.00 0.00 0.00 0.00 0.00 0.00 0.00 0.00 0.00

GFSFLT2_prec_precacc6_018.txt.gz
Total_Precipitation_Accumulation
0.00 0.01 0.02 0.03 0.02 0.03 0.03 0.02 0.01 0.01 0.02 0.03 0.05 0.06 0.06 0.06 0.09 0.11 0.13 0.13 0.11 0.10 0.10 0.11 0.12 0.08 0.04
0.00 0.00 0.00 0.01 0.01 0.03 0.02 0.03 0.03 0.02 0.05 0.06 0.06 0.06 0.06 0.06 0.07 0.10 0.12 0.14 0.18 0.17 0.15 0.12 0.13 0.17 0.16
0.01 0.00 0.00 0.00 0.01 0.02 0.03 0.04 0.05 0.06 0.08 0.08 0.11 0.14 0.16 0.16 0.17 0.20 0.25 0.32 0.35 0.35 0.34 0.27 0.25 0.24 0.16
0.01 0.01 0.00 0.00 0.01 0.02 0.02 0.02 0.01 0.06 0.11 0.09 0.08 0.08 0.12 0.19 0.25 0.27 0.29 0.36 0.45 0.54 0.59 0.56 0.45 0.35 0.23
0.01 0.00 0.00 0.00 0.01 0.01 0.02 0.01 0.01 0.01 0.02 0.03 0.05 0.08 0.12 0.16 0.22 0.22 0.25 0.35 0.47 0.55 0.55 0.57 0.54 0.49 0.38
0.01 0.00 0.00 0.00 0.01 0.01 0.02 0.03 0.02 0.01 0.02 0.02 0.03 0.05 0.08 0.16 0.20 0.23 0.27 0.30 0.36 0.43 0.48 0.47 0.44 0.39 0.32
0.00 0.00 0.01 0.00 0.01 0.02 0.04 0.04 0.03 0.02 0.05 0.04 0.06 0.08 0.10 0.12 0.20 0.22 0.31 0.38 0.39 0.41 0.42 0.40 0.36 0.35 0.30
0.01 0.01 0.02 0.03 0.04 0.04 0.03 0.02 0.02 0.02 0.02 0.03 0.03 0.06 0.08 0.14 0.29 0.29 0.28 0.31 0.37 0.38 0.37 0.36 0.34 0.30 0.23
0.02 0.04 0.05 0.03 0.02 0.02 0.02 0.03 0.04 0.02 0.04 0.06 0.07 0.09 0.12 0.16 0.29 0.34 0.29 0.30 0.35 0.37 0.35 0.31 0.27 0.25 0.19
0.01 0.01 0.01 0.01 0.02 0.03 0.06 0.14 0.13 0.09 0.03 0.08 0.13 0.12 0.14 0.13 0.21 0.36 0.38 0.38 0.36 0.34 0.31 0.26 0.22 0.19 0.15
0.00 0.00 0.00 0.00 0.01 0.02 0.05 0.18 0.24 0.17 0.09 0.17 0.19 0.15 0.18 0.18 0.25 0.41 0.38 0.39 0.39 0.33 0.28 0.22 0.16 0.11 0.09
0.01 0.01 0.00 0.01 0.01 0.01 0.03 0.09 0.16 0.20 0.14 0.21 0.25 0.16 0.19 0.29 0.35 0.48 0.47 0.37 0.27 0.21 0.16 0.14 0.10 0.06 0.03
0.03 0.02 0.01 0.02 0.05 0.10 0.16 0.20 0.23 0.25 0.24 0.25 0.27 0.32 0.32 0.32 0.30 0.34 0.34 0.30 0.21 0.15 0.11 0.08 0.05 0.02 0.01
0.10 0.04 0.02 0.05 0.11 0.22 0.30 0.31 0.31 0.26 0.25 0.30 0.32 0.29 0.23 0.21 0.20 0.24 0.20 0.17 0.17 0.14 0.09 0.06 0.03 0.01 0.00
0.07 0.04 0.04 0.08 0.15 0.26 0.38 0.36 0.30 0.25 0.27 0.28 0.22 0.15 0.13 0.11 0.13 0.15 0.14 0.10 0.09 0.08 0.05 0.03 0.01 0.00 0.00
0.05 0.05 0.09 0.14 0.19 0.28 0.40 0.35 0.31 0.29 0.27 0.21 0.15 0.10 0.07 0.05 0.05 0.06 0.04 0.02 0.02 0.01 0.00 0.00 0.00 0.00 0.00
0.11 0.12 0.14 0.17 0.22 0.29 0.31 0.29 0.27 0.19 0.11 0.06 0.03 0.03 0.02 0.01 0.00 0.00 0.00 0.00 0.00 0.00 0.00 0.00 0.00 0.00 0.00

GFSFLT2_prec_precacc6_021.txt.gz
Total_Precipitation_Accumulation
0.00 0.00 0.00 0.00 0.00 0.00 0.01 0.01 0.00 0.00 0.01 0.01 0.02 0.04 0.06 0.08 0.11 0.13 0.15 0.17 0.20 0.23 0.22 0.19 0.20 0.14 0.09
0.00 0.00 0.00 0.00 0.00 0.01 0.01 0.01 0.01 0.01 0.02 0.02 0.03 0.02 0.02 0.03 0.06 0.07 0.08 0.09 0.14 0.22 0.28 0.31 0.32 0.28 0.24
0.01 0.00 0.00 0.00 0.00 0.00 0.00 0.01 0.01 0.02 0.03 0.03 0.03 0.02 0.02 0.03 0.09 0.13 0.14 0.14 0.14 0.14 0.18 0.30 0.42 0.52 0.48
0.01 0.00 0.00 0.00 0.00 0.01 0.01 0.01 0.01 0.01 0.01 0.00 0.00 0.00 0.00 0.00 0.03 0.07 0.11 0.11 0.14 0.24 0.36 0.43 0.46 0.54 0.61
0.01 0.01 0.01 0.00 0.00 0.00 0.01 0.00 0.00 0.00 0.00 0.00 0.00 0.00 0.00 0.00 0.01 0.02 0.06 0.11 0.16 0.24 0.32 0.44 0.55 0.63 0.66
0.03 0.02 0.01 0.00 0.00 0.00 0.01 0.01 0.01 0.01 0.02 0.01 0.02 0.01 0.00 0.00 0.00 0.00 0.02 0.07 0.10 0.16 0.26 0.33 0.37 0.45 0.55
0.02 0.02 0.02 0.01 0.01 0.03 0.06 0.08 0.06 0.01 0.01 0.01 0.01 0.01 0.00 0.00 0.01 0.01 0.03 0.09 0.14 0.20 0.27 0.32 0.33 0.39 0.46
0.01 0.02 0.04 0.05 0.08 0.11 0.10 0.04 0.02 0.01 0.01 0.02 0.00 0.01 0.01 0.00 0.01 0.03 0.05 0.08 0.14 0.19 0.25 0.29 0.34 0.40 0.41
0.02 0.04 0.06 0.03 0.02 0.04 0.07 0.06 0.06 0.01 0.01 0.03 0.02 0.02 0.02 0.01 0.02 0.09 0.09 0.10 0.14 0.18 0.22 0.28 0.34 0.39 0.43
0.01 0.01 0.00 0.00 0.01 0.05 0.17 0.25 0.16 0.09 0.02 0.04 0.03 0.06 0.08 0.02 0.02 0.09 0.12 0.16 0.18 0.21 0.23 0.26 0.31 0.33 0.33
0.00 0.00 0.00 0.00 0.01 0.05 0.11 0.21 0.22 0.11 0.02 0.08 0.08 0.02 0.04 0.04 0.06 0.13 0.13 0.21 0.28 0.31 0.31 0.29 0.25 0.21 0.25
0.01 0.01 0.00 0.00 0.01 0.01 0.03 0.07 0.12 0.16 0.05 0.08 0.17 0.05 0.07 0.12 0.14 0.22 0.28 0.27 0.24 0.26 0.25 0.27 0.25 0.20 0.17
0.02 0.01 0.01 0.01 0.01 0.02 0.02 0.04 0.08 0.10 0.09 0.12 0.17 0.18 0.20 0.21 0.19 0.28 0.35 0.39 0.33 0.26 0.23 0.20 0.15 0.12 0.10
0.07 0.03 0.00 0.01 0.01 0.05 0.09 0.09 0.13 0.13 0.13 0.16 0.20 0.23 0.21 0.20 0.20 0.28 0.29 0.29 0.33 0.28 0.21 0.17 0.13 0.09 0.05
0.05 0.03 0.01 0.02 0.03 0.08 0.15 0.18 0.18 0.15 0.15 0.18 0.20 0.18 0.17 0.18 0.21 0.26 0.26 0.24 0.24 0.23 0.18 0.16 0.16 0.10 0.05
0.04 0.04 0.06 0.08 0.10 0.13 0.19 0.21 0.19 0.18 0.19 0.19 0.19 0.15 0.15 0.14 0.16 0.19 0.17 0.15 0.17 0.14 0.10 0.08 0.10 0.08 0.02
0.09 0.11 0.12 0.13 0.14 0.18 0.18 0.20 0.20 0.16 0.10 0.06 0.05 0.05 0.07 0.06 0.06 0.06 0.05 0.06 0.08 0.08 0.06 0.02 0.02 0.02 0.00

GFSFLT2_prec_precacc6_024.txt.gz
Total_Precipitation_Accumulation
0.00 0.00 0.00 0.00 0.00 0.00 0.00 0.00 0.00 0.00 0.00 0.00 0.01 0.02 0.02 0.03 0.03 0.03 0.04 0.09 0.16 0.22 0.30 0.37 0.42 0.43 0.36
0.00 0.00 0.00 0.00 0.00 0.00 0.00 0.00 0.00 0.00 0.00 0.00 0.00 0.01 0.01 0.02 0.02 0.03 0.02 0.02 0.06 0.16 0.26 0.32 0.36 0.39 0.46
0.01 0.00 0.00 0.00 0.00 0.00 0.00 0.00 0.00 0.00 0.00 0.00 0.00 0.00 0.01 0.01 0.01 0.01 0.01 0.01 0.01 0.02 0.07 0.21 0.32 0.41 0.47
0.02 0.01 0.00 0.00 0.00 0.01 0.00 0.00 0.00 0.00 0.00 0.00 0.00 0.00 0.00 0.00 0.00 0.00 0.00 0.00 0.01 0.02 0.02 0.05 0.15 0.26 0.42
0.03 0.03 0.01 0.01 0.00 0.00 0.01 0.00 0.00 0.00 0.00 0.00 0.00 0.01 0.00 0.00 0.00 0.00 0.00 0.00 0.01 0.01 0.01 0.04 0.12 0.20 0.31
0.05 0.03 0.01 0.01 0.00 0.01 0.01 0.02 0.02 0.00 0.01 0.01 0.01 0.01 0.00 0.00 0.00 0.00 0.00 0.00 0.00 0.01 0.01 0.01 0.04 0.12 0.25
0.03 0.03 0.03 0.01 0.02 0.03 0.06 0.11 0.09 0.02 0.02 0.02 0.01 0.01 0.00 0.00 0.00 0.00 0.00 0.00 0.01 0.01 0.01 0.02 0.04 0.09 0.20
0.02 0.02 0.03 0.03 0.07 0.14 0.15 0.07 0.03 0.01 0.02 0.07 0.02 0.01 0.00 0.00 0.00 0.00 0.00 0.00 0.01 0.01 0.02 0.04 0.09 0.16 0.20
0.01 0.02 0.03 0.02 0.01 0.05 0.11 0.10 0.08 0.01 0.02 0.05 0.03 0.03 0.03 0.01 0.00 0.01 0.00 0.01 0.01 0.01 0.02 0.07 0.13 0.17 0.25
0.01 0.00 0.00 0.00 0.00 0.06 0.22 0.28 0.15 0.08 0.02 0.08 0.05 0.07 0.11 0.02 0.00 0.00 0.00 0.01 0.03 0.03 0.03 0.06 0.12 0.15 0.19
0.00 0.00 0.00 0.00 0.01 0.04 0.12 0.24 0.23 0.12 0.01 0.10 0.11 0.03 0.09 0.03 0.00 0.00 0.02 0.04 0.04 0.09 0.11 0.13 0.12 0.12 0.18
0.01 0.01 0.01 0.01 0.01 0.01 0.02 0.06 0.10 0.14 0.05 0.08 0.16 0.02 0.04 0.04 0.03 0.04 0.06 0.10 0.08 0.11 0.12 0.20 0.27 0.28 0.27
0.02 0.01 0.01 0.01 0.01 0.01 0.01 0.02 0.06 0.07 0.07 0.08 0.09 0.06 0.10 0.08 0.07 0.11 0.18 0.30 0.24 0.15 0.15 0.15 0.16 0.20 0.26
0.06 0.03 0.01 0.01 0.01 0.03 0.08 0.06 0.10 0.10 0.09 0.08 0.09 0.13 0.11 0.10 0.12 0.16 0.22 0.31 0.34 0.25 0.18 0.22 0.25 0.23 0.19
0.05 0.04 0.03 0.03 0.03 0.06 0.12 0.13 0.14 0.11 0.10 0.10 0.11 0.15 0.15 0.15 0.15 0.19 0.24 0.30 0.32 0.29 0.19 0.20 0.25 0.18 0.15
0.06 0.06 0.09 0.09 0.10 0.11 0.13 0.13 0.13 0.13 0.13 0.13 0.13 0.13 0.15 0.15 0.18 0.22 0.26 0.31 0.32 0.26 0.16 0.11 0.17 0.18 0.12
0.11 0.13 0.12 0.14 0.15 0.14 0.12 0.12 0.10 0.07 0.05 0.03 0.04 0.09 0.14 0.12 0.16 0.18 0.15 0.20 0.18 0.18 0.14 0.06 0.07 0.10 0.06

GFSFLT2_prec_precacc6_027.txt.gz
Total_Precipitation_Accumulation
0.00 0.00 0.00 0.00 0.00 0.00 0.00 0.00 0.00 0.00 0.00 0.00 0.00 0.00 0.00 0.00 0.00 0.00 0.01 0.02 0.04 0.07 0.16 0.29 0.39 0.48 0.47
0.00 0.00 0.00 0.00 0.00 0.00 0.00 0.00 0.00 0.00 0.00 0.00 0.00 0.00 0.00 0.00 0.00 0.00 0.00 0.00 0.01 0.03 0.05 0.08 0.15 0.28 0.43
0.01 0.00 0.00 0.00 0.00 0.00 0.00 0.00 0.00 0.00 0.00 0.00 0.00 0.00 0.00 0.00 0.00 0.00 0.00 0.00 0.01 0.01 0.01 0.02 0.03 0.06 0.16
0.02 0.01 0.01 0.00 0.00 0.00 0.00 0.00 0.00 0.00 0.00 0.00 0.00 0.00 0.00 0.00 0.00 0.00 0.00 0.00 0.00 0.01 0.01 0.01 0.01 0.01 0.02
0.04 0.05 0.03 0.01 0.00 0.00 0.01 0.00 0.00 0.00 0.00 0.00 0.01 0.01 0.00 0.00 0.01 0.00 0.00 0.01 0.01 0.01 0.01 0.01 0.01 0.01 0.01
0.10 0.05 0.01 0.01 0.01 0.01 0.02 0.02 0.02 0.00 0.02 0.02 0.02 0.01 0.00 0.00 0.00 0.00 0.00 0.00 0.00 0.00 0.00 0.00 0.00 0.01 0.01
0.02 0.02 0.02 0.01 0.01 0.03 0.04 0.06 0.06 0.02 0.03 0.02 0.01 0.01 0.00 0.00 0.00 0.00 0.00 0.00 0.00 0.01 0.00 0.00 0.01 0.00 0.01
0.01 0.01 0.01 0.02 0.05 0.10 0.10 0.06 0.03 0.01 0.02 0.09 0.03 0.02 0.00 0.00 0.00 0.01 0.01 0.01 0.01 0.01 0.01 0.00 0.00 0.00 0.00
0.01 0.01 0.01 0.00 0.00 0.03 0.09 0.08 0.06 0.02 0.02 0.05 0.04 0.04 0.03 0.01 0.00 0.01 0.01 0.03 0.03 0.03 0.02 0.02 0.01 0.01 0.01
0.00 0.00 0.00 0.00 0.00 0.03 0.15 0.23 0.11 0.06 0.02 0.09 0.06 0.04 0.07 0.00 0.00 0.01 0.01 0.01 0.02 0.01 0.01 0.01 0.02 0.01 0.01
0.00 0.00 0.00 0.00 0.01 0.01 0.05 0.17 0.20 0.12 0.01 0.09 0.13 0.04 0.10 0.03 0.00 0.00 0.00 0.00 0.00 0.00 0.02 0.03 0.02 0.02 0.02
0.01 0.01 0.01 0.01 0.01 0.01 0.01 0.02 0.06 0.12 0.05 0.09 0.19 0.06 0.07 0.03 0.01 0.00 0.00 0.04 0.05 0.05 0.03 0.07 0.14 0.19 0.18
0.03 0.01 0.01 0.01 0.01 0.02 0.01 0.01 0.04 0.04 0.09 0.14 0.14 0.06 0.08 0.05 0.02 0.02 0.07 0.16 0.17 0.09 0.06 0.03 0.06 0.13 0.25
0.07 0.03 0.02 0.02 0.04 0.05 0.10 0.08 0.12 0.08 0.09 0.10 0.11 0.12 0.09 0.08 0.08 0.07 0.12 0.23 0.29 0.22 0.14 0.17 0.20 0.19 0.16
0.06 0.05 0.05 0.05 0.06 0.08 0.16 0.14 0.12 0.10 0.08 0.08 0.08 0.11 0.15 0.13 0.11 0.12 0.14 0.23 0.35 0.32 0.17 0.25 0.32 0.31 0.29
0.07 0.09 0.12 0.11 0.12 0.13 0.12 0.10 0.09 0.08 0.09 0.09 0.08 0.10 0.13 0.11 0.13 0.16 0.18 0.29 0.39 0.36 0.24 0.11 0.22 0.32 0.29
0.11 0.11 0.10 0.11 0.12 0.10 0.07 0.06 0.04 0.02 0.02 0.02 0.07 0.14 0.16 0.12 0.16 0.20 0.19 0.26 0.24 0.22 0.18 0.09 0.10 0.20 0.18

GFSFLT2_prec_precacc6_030.txt.gz
Total_Precipitation_Accumulation
0.00 0.00 0.00 0.00 0.00 0.00 0.00 0.00 0.00 0.00 0.00 0.00 0.00 0.00 0.00 0.00 0.00 0.00 0.00 0.00 0.01 0.01 0.02 0.03 0.08 0.15 0.18
0.00 0.00 0.00 0.00 0.00 0.00 0.00 0.00 0.00 0.00 0.00 0.00 0.00 0.00 0.00 0.00 0.00 0.00 0.00 0.00 0.00 0.00 0.00 0.01 0.02 0.05 0.09
0.00 0.00 0.00 0.00 0.00 0.00 0.00 0.00 0.00 0.00 0.00 0.00 0.00 0.00 0.00 0.00 0.00 0.00 0.01 0.01 0.01 0.01 0.01 0.01 0.01 0.01 0.03
0.02 0.01 0.01 0.01 0.02 0.02 0.00 0.00 0.00 0.00 0.00 0.00 0.00 0.00 0.00 0.01 0.01 0.02 0.01 0.01 0.02 0.02 0.03 0.02 0.01 0.01 0.01
0.03 0.07 0.07 0.02 0.00 0.00 0.00 0.00 0.00 0.00 0.00 0.00 0.00 0.00 0.00 0.00 0.00 0.00 0.00 0.01 0.01 0.02 0.02 0.03 0.02 0.01 0.01
0.15 0.08 0.01 0.00 0.00 0.00 0.01 0.01 0.01 0.00 0.02 0.01 0.01 0.00 0.00 0.00 0.00 0.01 0.01 0.02 0.03 0.01 0.01 0.01 0.00 0.00 0.00
0.02 0.01 0.00 0.00 0.01 0.03 0.04 0.05 0.03 0.01 0.01 0.01 0.01 0.01 0.00 0.00 0.01 0.01 0.01 0.02 0.02 0.02 0.02 0.02 0.01 0.01 0.01
0.00 0.00 0.00 0.01 0.02 0.06 0.06 0.04 0.01 0.01 0.01 0.05 0.02 0.01 0.00 0.00 0.01 0.01 0.01 0.01 0.01 0.02 0.02 0.01 0.01 0.01 0.01
0.01 0.00 0.00 0.00 0.00 0.01 0.05 0.06 0.04 0.01 0.01 0.03 0.03 0.02 0.01 0.00 0.00 0.01 0.05 0.07 0.07 0.05 0.04 0.03 0.02 0.01 0.01
0.00 0.00 0.00 0.00 0.00 0.01 0.07 0.19 0.09 0.05 0.00 0.05 0.05 0.02 0.06 0.01 0.00 0.04 0.03 0.01 0.02 0.02 0.02 0.02 0.02 0.02 0.01
0.00 0.00 0.00 0.00 0.00 0.00 0.03 0.13 0.19 0.11 0.01 0.07 0.15 0.04 0.07 0.03 0.00 0.00 0.00 0.00 0.00 0.00 0.00 0.00 0.00 0.01 0.00
0.01 0.01 0.01 0.01 0.01 0.01 0.01 0.03 0.07 0.14 0.06 0.09 0.23 0.10 0.12 0.05 0.01 0.00 0.00 0.00 0.02 0.02 0.01 0.01 0.02 0.06 0.06
0.03 0.02 0.01 0.02 0.02 0.02 0.02 0.02 0.04 0.04 0.10 0.14 0.17 0.09 0.05 0.03 0.01 0.00 0.03 0.05 0.14 0.17 0.09 0.01 0.01 0.02 0.08
0.07 0.03 0.02 0.03 0.05 0.06 0.10 0.08 0.09 0.05 0.05 0.06 0.08 0.07 0.04 0.04 0.06 0.04 0.05 0.10 0.19 0.24 0.19 0.10 0.07 0.04 0.03
0.05 0.05 0.03 0.05 0.05 0.06 0.13 0.09 0.08 0.06 0.04 0.03 0.04 0.05 0.08 0.12 0.09 0.09 0.07 0.13 0.28 0.38 0.30 0.32 0.32 0.30 0.23
0.05 0.06 0.07 0.07 0.08 0.07 0.05 0.05 0.06 0.05 0.04 0.03 0.05 0.04 0.07 0.08 0.11 0.13 0.13 0.16 0.32 0.41 0.41 0.22 0.32 0.44 0.41
0.06 0.06 0.06 0.06 0.05 0.04 0.03 0.03 0.03 0.04 0.03 0.01 0.09 0.10 0.09 0.07 0.10 0.17 0.15 0.18 0.21 0.22 0.21 0.10 0.15 0.36 0.38

GFSFLT2_prec_precacc6_033.txt.gz
Total_Precipitation_Accumulation
0.00 0.00 0.00 0.00 0.00 0.00 0.00 0.00 0.00 0.00 0.01 0.01 0.00 0.00 0.00 0.00 0.00 0.01 0.01 0.01 0.01 0.01 0.01 0.01 0.02 0.03 0.04
0.00 0.00 0.00 0.00 0.00 0.00 0.00 0.00 0.00 0.01 0.00 0.00 0.00 0.00 0.00 0.00 0.00 0.00 0.00 0.01 0.01 0.01 0.02 0.02 0.02 0.02 0.03
0.01 0.00 0.00 0.00 0.00 0.01 0.01 0.00 0.00 0.00 0.00 0.00 0.00 0.00 0.00 0.00 0.00 0.01 0.02 0.03 0.03 0.03 0.04 0.04 0.03 0.03 0.02
0.05 0.04 0.01 0.01 0.03 0.02 0.00 0.00 0.00 0.00 0.00 0.00 0.00 0.00 0.00 0.01 0.01 0.02 0.02 0.01 0.02 0.02 0.03 0.03 0.03 0.03 0.02
0.04 0.06 0.08 0.03 0.00 0.00 0.00 0.00 0.00 0.00 0.00 0.00 0.00 0.00 0.00 0.00 0.00 0.00 0.00 0.01 0.01 0.03 0.05 0.06 0.04 0.03 0.03
0.15 0.07 0.01 0.00 0.00 0.00 0.01 0.01 0.02 0.01 0.01 0.00 0.00 0.00 0.00 0.00 0.00 0.01 0.02 0.04 0.05 0.05 0.05 0.04 0.03 0.02 0.01
0.01 0.00 0.00 0.00 0.02 0.07 0.06 0.07 0.04 0.00 0.01 0.00 0.00 0.00 0.00 0.00 0.01 0.01 0.01 0.02 0.03 0.03 0.04 0.03 0.02 0.01 0.00
0.00 0.00 0.00 0.02 0.04 0.05 0.05 0.04 0.01 0.00 0.00 0.02 0.01 0.00 0.00 0.00 0.00 0.01 0.01 0.02 0.02 0.04 0.03 0.02 0.02 0.02 0.01
0.01 0.01 0.00 0.00 0.00 0.03 0.07 0.06 0.04 0.00 0.00 0.02 0.01 0.00 0.00 0.00 0.00 0.00 0.04 0.07 0.09 0.07 0.05 0.04 0.03 0.02 0.01
0.00 0.00 0.00 0.00 0.00 0.01 0.07 0.17 0.08 0.05 0.00 0.05 0.04 0.01 0.07 0.01 0.00 0.03 0.02 0.00 0.00 0.01 0.01 0.02 0.02 0.02 0.02
0.00 0.00 0.00 0.00 0.00 0.01 0.05 0.17 0.22 0.14 0.01 0.12 0.16 0.04 0.09 0.04 0.00 0.00 0.00 0.00 0.00 0.00 0.00 0.00 0.00 0.00 0.01
0.00 0.00 0.01 0.01 0.01 0.01 0.02 0.05 0.09 0.17 0.08 0.12 0.21 0.10 0.12 0.05 0.01 0.00 0.00 0.00 0.02 0.01 0.00 0.00 0.00 0.01 0.00
0.02 0.01 0.02 0.02 0.03 0.02 0.01 0.02 0.03 0.04 0.08 0.10 0.14 0.09 0.06 0.03 0.02 0.01 0.04 0.02 0.12 0.20 0.10 0.01 0.00 0.00 0.01
0.06 0.03 0.02 0.02 0.03 0.04 0.07 0.05 0.05 0.01 0.01 0.04 0.10 0.06 0.02 0.02 0.08 0.05 0.06 0.11 0.12 0.24 0.25 0.06 0.02 0.00 0.00
0.04 0.04 0.02 0.02 0.02 0.02 0.07 0.05 0.06 0.05 0.03 0.01 0.02 0.02 0.01 0.07 0.09 0.09 0.11 0.12 0.18 0.40 0.40 0.21 0.15 0.10 0.06
0.03 0.03 0.04 0.03 0.03 0.02 0.03 0.05 0.08 0.05 0.04 0.02 0.03 0.01 0.02 0.04 0.13 0.17 0.16 0.16 0.23 0.34 0.52 0.23 0.26 0.35 0.31
0.04 0.05 0.04 0.03 0.03 0.04 0.03 0.03 0.03 0.06 0.03 0.01 0.06 0.06 0.05 0.04 0.06 0.22 0.15 0.18 0.17 0.20 0.30 0.17 0.25 0.47 0.42

GFSFLT2_prec_precacc6_036.txt.gz
Total_Precipitation_Accumulation
0.00 0.00 0.00 0.00 0.00 0.00 0.00 0.00 0.00 0.00 0.01 0.01 0.01 0.01 0.00 0.00 0.01 0.01 0.01 0.01 0.01 0.02 0.02 0.03 0.04 0.04 0.04
0.00 0.00 0.00 0.00 0.00 0.00 0.00 0.00 0.01 0.01 0.01 0.00 0.00 0.00 0.00 0.00 0.00 0.00 0.00 0.00 0.01 0.01 0.02 0.03 0.03 0.03 0.03
0.01 0.00 0.00 0.00 0.00 0.00 0.00 0.00 0.00 0.00 0.00 0.00 0.00 0.00 0.00 0.00 0.00 0.01 0.02 0.04 0.05 0.04 0.04 0.05 0.06 0.05 0.05
0.07 0.06 0.01 0.01 0.02 0.01 0.00 0.00 0.00 0.00 0.00 0.00 0.00 0.00 0.00 0.00 0.00 0.00 0.01 0.01 0.00 0.00 0.00 0.01 0.02 0.03 0.03
0.05 0.06 0.07 0.02 0.00 0.00 0.00 0.00 0.00 0.00 0.00 0.00 0.00 0.00 0.00 0.00 0.00 0.00 0.00 0.00 0.01 0.02 0.03 0.04 0.05 0.05 0.05
0.16 0.07 0.00 0.00 0.00 0.00 0.03 0.05 0.03 0.00 0.00 0.00 0.00 0.00 0.00 0.00 0.00 0.00 0.01 0.02 0.03 0.05 0.06 0.07 0.06 0.05 0.04
0.01 0.00 0.00 0.01 0.07 0.12 0.07 0.05 0.04 0.00 0.00 0.01 0.00 0.00 0.00 0.00 0.00 0.00 0.01 0.01 0.02 0.03 0.03 0.03 0.03 0.03 0.03
0.00 0.01 0.01 0.04 0.05 0.03 0.05 0.04 0.01 0.00 0.00 0.03 0.00 0.00 0.00 0.00 0.00 0.00 0.00 0.01 0.02 0.03 0.04 0.03 0.02 0.02 0.02
0.02 0.01 0.00 0.00 0.00 0.08 0.09 0.05 0.03 0.00 0.00 0.03 0.02 0.00 0.00 0.00 0.00 0.00 0.01 0.03 0.05 0.06 0.07 0.09 0.09 0.06 0.03
0.00 0.00 0.00 0.00 0.00 0.02 0.10 0.16 0.07 0.05 0.00 0.08 0.05 0.02 0.09 0.01 0.00 0.00 0.00 0.00 0.00 0.01 0.01 0.01 0.02 0.02 0.03
0.00 0.00 0.00 0.00 0.00 0.01 0.07 0.18 0.22 0.13 0.01 0.16 0.16 0.04 0.09 0.03 0.00 0.00 0.00 0.00 0.00 0.00 0.00 0.00 0.00 0.01 0.01
0.00 0.00 0.01 0.01 0.01 0.01 0.02 0.05 0.09 0.19 0.08 0.12 0.20 0.10 0.11 0.03 0.00 0.00 0.00 0.00 0.04 0.03 0.03 0.02 0.01 0.01 0.01
0.01 0.01 0.01 0.02 0.02 0.01 0.01 0.01 0.02 0.04 0.07 0.08 0.13 0.09 0.07 0.04 0.02 0.01 0.05 0.02 0.12 0.19 0.11 0.03 0.01 0.00 0.01
0.04 0.02 0.01 0.01 0.02 0.03 0.05 0.02 0.03 0.00 0.00 0.03 0.11 0.09 0.03 0.01 0.07 0.06 0.07 0.18 0.15 0.24 0.26 0.08 0.01 0.00 0.00
0.03 0.02 0.01 0.01 0.01 0.01 0.04 0.04 0.04 0.05 0.03 0.00 0.02 0.02 0.01 0.04 0.07 0.11 0.16 0.14 0.17 0.34 0.38 0.11 0.06 0.03 0.02
0.02 0.02 0.04 0.02 0.02 0.01 0.02 0.04 0.05 0.03 0.03 0.02 0.02 0.01 0.01 0.01 0.14 0.24 0.18 0.17 0.22 0.30 0.43 0.11 0.13 0.16 0.09
0.03 0.04 0.04 0.02 0.01 0.02 0.02 0.01 0.01 0.04 0.01 0.02 0.04 0.04 0.04 0.02 0.03 0.24 0.21 0.21 0.20 0.24 0.31 0.21 0.24 0.33 0.20

GFSFLT2_prec_precacc6_039.txt.gz
Total_Precipitation_Accumulation
0.00 0.00 0.00 0.00 0.00 0.00 0.00 0.00 0.00 0.00 0.00 0.01 0.01 0.01 0.00 0.01 0.01 0.00 0.01 0.01 0.01 0.02 0.03 0.05 0.06 0.06 0.07
0.00 0.00 0.00 0.00 0.00 0.00 0.00 0.00 0.00 0.00 0.00 0.00 0.00 0.00 0.00 0.00 0.00 0.00 0.00 0.00 0.00 0.01 0.01 0.01 0.03 0.04 0.04
0.00 0.00 0.00 0.00 0.00 0.00 0.00 0.00 0.00 0.00 0.00 0.00 0.00 0.00 0.00 0.00 0.00 0.02 0.04 0.05 0.05 0.04 0.04 0.05 0.05 0.07 0.07
0.04 0.03 0.01 0.01 0.02 0.00 0.00 0.00 0.00 0.00 0.00 0.00 0.00 0.00 0.00 0.00 0.00 0.00 0.00 0.01 0.01 0.01 0.01 0.01 0.02 0.02 0.03
0.06 0.08 0.06 0.01 0.00 0.00 0.00 0.00 0.00 0.00 0.00 0.00 0.00 0.00 0.00 0.00 0.00 0.00 0.00 0.00 0.00 0.00 0.01 0.03 0.04 0.04 0.03
0.15 0.05 0.00 0.00 0.00 0.01 0.05 0.06 0.03 0.00 0.00 0.00 0.00 0.00 0.00 0.00 0.00 0.00 0.01 0.01 0.01 0.02 0.04 0.06 0.06 0.07 0.08
0.00 0.00 0.00 0.02 0.11 0.10 0.04 0.02 0.02 0.00 0.00 0.02 0.00 0.00 0.00 0.00 0.00 0.00 0.00 0.01 0.01 0.02 0.02 0.03 0.04 0.04 0.05
0.00 0.01 0.02 0.04 0.02 0.03 0.06 0.04 0.01 0.00 0.00 0.05 0.00 0.00 0.00 0.00 0.00 0.00 0.00 0.01 0.01 0.03 0.04 0.04 0.03 0.03 0.03
0.02 0.01 0.00 0.00 0.00 0.11 0.08 0.04 0.02 0.00 0.00 0.02 0.01 0.00 0.00 0.00 0.00 0.00 0.00 0.01 0.02 0.03 0.05 0.08 0.10 0.09 0.05
0.00 0.00 0.00 0.00 0.00 0.03 0.11 0.14 0.05 0.04 0.00 0.08 0.04 0.03 0.10 0.00 0.00 0.00 0.00 0.00 0.00 0.01 0.01 0.02 0.03 0.04 0.07
0.00 0.00 0.00 0.00 0.00 0.01 0.05 0.16 0.20 0.11 0.00 0.16 0.15 0.03 0.08 0.03 0.00 0.00 0.00 0.00 0.00 0.01 0.01 0.01 0.01 0.02 0.02
0.00 0.00 0.00 0.00 0.00 0.00 0.01 0.03 0.10 0.20 0.09 0.11 0.20 0.10 0.12 0.04 0.00 0.00 0.00 0.01 0.10 0.06 0.05 0.04 0.03 0.02 0.02
0.01 0.00 0.00 0.01 0.01 0.00 0.00 0.01 0.02 0.03 0.06 0.05 0.12 0.10 0.10 0.07 0.03 0.01 0.07 0.03 0.10 0.19 0.14 0.09 0.04 0.02 0.01
0.02 0.01 0.00 0.00 0.01 0.01 0.02 0.01 0.02 0.00 0.00 0.01 0.07 0.10 0.06 0.03 0.12 0.07 0.06 0.23 0.16 0.24 0.27 0.12 0.04 0.01 0.00
0.01 0.01 0.00 0.00 0.01 0.00 0.01 0.02 0.02 0.02 0.01 0.00 0.00 0.01 0.02 0.07 0.09 0.11 0.18 0.13 0.19 0.33 0.33 0.09 0.02 0.00 0.00
0.01 0.01 0.02 0.01 0.01 0.00 0.00 0.01 0.02 0.02 0.02 0.01 0.01 0.01 0.00 0.00 0.11 0.24 0.18 0.16 0.25 0.35 0.29 0.04 0.05 0.03 0.00
0.01 0.03 0.04 0.01 0.00 0.01 0.01 0.01 0.01 0.02 0.01 0.03 0.03 0.03 0.02 0.01 0.01 0.17 0.29 0.23 0.20 0.24 0.22 0.14 0.14 0.15 0.05

GFSFLT2_prec_precacc6_042.txt.gz
Total_Precipitation_Accumulation
0.00 0.00 0.00 0.00 0.00 0.00 0.00 0.00 0.00 0.00 0.00 0.00 0.00 0.00 0.00 0.00 0.00 0.01 0.03 0.03 0.04 0.04 0.04 0.05 0.06 0.07 0.08
0.00 0.00 0.00 0.00 0.00 0.00 0.00 0.00 0.00 0.00 0.00 0.00 0.00 0.00 0.00 0.00 0.01 0.03 0.02 0.02 0.02 0.03 0.04 0.03 0.04 0.04 0.04
0.00 0.00 0.00 0.00 0.00 0.00 0.00 0.00 0.00 0.00 0.00 0.00 0.00 0.00 0.00 0.00 0.01 0.03 0.05 0.06 0.06 0.05 0.06 0.06 0.07 0.08 0.08
0.01 0.02 0.03 0.01 0.01 0.00 0.00 0.00 0.00 0.00 0.00 0.00 0.00 0.00 0.00 0.00 0.00 0.00 0.00 0.01 0.01 0.01 0.01 0.02 0.03 0.04 0.05
0.09 0.07 0.02 0.00 0.00 0.00 0.00 0.00 0.00 0.00 0.00 0.00 0.00 0.00 0.00 0.00 0.00 0.00 0.00 0.00 0.00 0.01 0.01 0.02 0.03 0.03 0.02
0.05 0.01 0.00 0.00 0.00 0.02 0.04 0.03 0.02 0.00 0.00 0.01 0.00 0.00 0.00 0.00 0.00 0.00 0.00 0.01 0.01 0.02 0.04 0.05 0.05 0.05 0.07
0.00 0.00 0.00 0.03 0.09 0.05 0.02 0.02 0.02 0.00 0.00 0.01 0.00 0.00 0.00 0.00 0.00 0.00 0.00 0.01 0.01 0.02 0.03 0.04 0.05 0.04 0.05
0.00 0.00 0.04 0.03 0.00 0.03 0.06 0.03 0.01 0.00 0.00 0.03 0.00 0.00 0.00 0.00 0.00 0.00 0.00 0.01 0.02 0.03 0.03 0.04 0.04 0.04 0.04
0.02 0.01 0.00 0.00 0.00 0.09 0.06 0.04 0.02 0.00 0.00 0.02 0.01 0.00 0.00 0.00 0.00 0.00 0.00 0.01 0.01 0.02 0.02 0.03 0.05 0.06 0.05
0.00 0.00 0.00 0.00 0.00 0.02 0.07 0.12 0.04 0.04 0.00 0.08 0.03 0.02 0.09 0.00 0.00 0.00 0.00 0.00 0.00 0.00 0.01 0.01 0.02 0.03 0.06
0.00 0.00 0.00 0.00 0.00 0.00 0.02 0.12 0.16 0.10 0.00 0.15 0.13 0.02 0.07 0.02 0.00 0.00 0.00 0.00 0.02 0.01 0.01 0.02 0.03 0.03 0.06
0.00 0.00 0.00 0.00 0.00 0.00 0.00 0.01 0.05 0.14 0.06 0.08 0.17 0.09 0.13 0.05 0.01 0.00 0.00 0.02 0.11 0.07 0.05 0.04 0.06 0.05 0.05
0.01 0.00 0.00 0.00 0.00 0.00 0.00 0.00 0.00 0.01 0.02 0.01 0.10 0.09 0.11 0.13 0.09 0.02 0.07 0.03 0.04 0.14 0.13 0.11 0.08 0.05 0.04
0.01 0.00 0.00 0.00 0.00 0.00 0.01 0.01 0.01 0.00 0.00 0.00 0.05 0.10 0.10 0.06 0.17 0.07 0.05 0.20 0.12 0.18 0.23 0.11 0.07 0.03 0.01
0.01 0.01 0.00 0.00 0.00 0.00 0.01 0.01 0.02 0.01 0.00 0.00 0.00 0.01 0.03 0.06 0.06 0.07 0.17 0.10 0.19 0.29 0.19 0.05 0.02 0.00 0.00
0.01 0.01 0.01 0.01 0.01 0.00 0.00 0.01 0.02 0.01 0.02 0.01 0.00 0.00 0.00 0.00 0.09 0.17 0.12 0.15 0.24 0.31 0.21 0.06 0.03 0.02 0.00
0.01 0.02 0.04 0.02 0.00 0.00 0.00 0.01 0.01 0.01 0.01 0.02 0.02 0.02 0.02 0.00 0.00 0.07 0.26 0.21 0.13 0.16 0.16 0.13 0.11 0.07 0.02

GFSFLT2_prec_precacc6_045.txt.gz
Total_Precipitation_Accumulation
0.00 0.00 0.00 0.00 0.00 0.00 0.00 0.00 0.00 0.00 0.00 0.00 0.00 0.00 0.00 0.00 0.00 0.02 0.04 0.06 0.07 0.07 0.07 0.08 0.08 0.08 0.09
0.00 0.00 0.00 0.00 0.00 0.00 0.00 0.00 0.00 0.00 0.00 0.00 0.00 0.00 0.00 0.00 0.01 0.03 0.03 0.03 0.04 0.06 0.07 0.07 0.06 0.06 0.06
0.00 0.00 0.00 0.00 0.00 0.00 0.00 0.00 0.00 0.00 0.00 0.00 0.00 0.00 0.00 0.00 0.01 0.02 0.03 0.03 0.03 0.03 0.05 0.06 0.07 0.08 0.07
0.04 0.05 0.03 0.00 0.00 0.00 0.00 0.00 0.00 0.00 0.00 0.00 0.00 0.00 0.00 0.00 0.00 0.00 0.00 0.00 0.00 0.00 0.01 0.02 0.03 0.04 0.05
0.09 0.03 0.00 0.00 0.00 0.00 0.00 0.00 0.00 0.00 0.00 0.00 0.00 0.00 0.00 0.00 0.00 0.00 0.00 0.00 0.01 0.01 0.01 0.02 0.02 0.02 0.02
0.00 0.00 0.00 0.00 0.00 0.02 0.03 0.02 0.02 0.00 0.00 0.00 0.00 0.00 0.00 0.00 0.00 0.00 0.00 0.01 0.01 0.01 0.03 0.04 0.05 0.05 0.06
0.00 0.00 0.00 0.02 0.06 0.03 0.02 0.03 0.03 0.00 0.00 0.00 0.00 0.00 0.00 0.00 0.00 0.00 0.00 0.01 0.01 0.02 0.03 0.04 0.05 0.05 0.05
0.00 0.00 0.04 0.03 0.00 0.02 0.04 0.02 0.01 0.00 0.00 0.01 0.00 0.00 0.00 0.00 0.00 0.00 0.00 0.00 0.01 0.02 0.03 0.03 0.04 0.04 0.04
0.02 0.00 0.00 0.00 0.00 0.04 0.03 0.03 0.01 0.00 0.00 0.01 0.00 0.00 0.00 0.00 0.00 0.00 0.00 0.00 0.01 0.01 0.02 0.02 0.03 0.04 0.04
0.00 0.00 0.00 0.00 0.00 0.00 0.03 0.09 0.03 0.04 0.00 0.07 0.02 0.02 0.06 0.00 0.00 0.00 0.00 0.00 0.00 0.00 0.02 0.03 0.03 0.03 0.04
0.00 0.00 0.00 0.00 0.00 0.00 0.00 0.08 0.11 0.08 0.00 0.13 0.10 0.02 0.06 0.02 0.00 0.00 0.00 0.01 0.03 0.01 0.01 0.03 0.05 0.07 0.12
0.00 0.00 0.00 0.00 0.00 0.00 0.00 0.00 0.02 0.06 0.02 0.06 0.16 0.07 0.11 0.06 0.02 0.00 0.00 0.01 0.05 0.04 0.03 0.03 0.07 0.10 0.11
0.01 0.00 0.00 0.00 0.00 0.00 0.00 0.00 0.00 0.00 0.00 0.01 0.10 0.08 0.09 0.14 0.15 0.03 0.03 0.01 0.01 0.05 0.10 0.12 0.12 0.09 0.08
0.01 0.00 0.00 0.00 0.00 0.00 0.01 0.01 0.01 0.00 0.00 0.01 0.06 0.12 0.11 0.05 0.15 0.06 0.02 0.13 0.09 0.09 0.15 0.07 0.06 0.03 0.02
0.01 0.01 0.00 0.00 0.00 0.00 0.01 0.01 0.02 0.00 0.00 0.00 0.00 0.01 0.02 0.03 0.01 0.04 0.14 0.08 0.12 0.16 0.10 0.05 0.02 0.01 0.00
0.01 0.01 0.01 0.01 0.01 0.00 0.00 0.01 0.01 0.00 0.01 0.00 0.00 0.00 0.00 0.00 0.05 0.11 0.06 0.11 0.12 0.14 0.13 0.08 0.03 0.03 0.00
0.01 0.02 0.04 0.02 0.00 0.01 0.01 0.01 0.01 0.00 0.01 0.00 0.01 0.03 0.02 0.00 0.00 0.02 0.17 0.14 0.07 0.08 0.10 0.11 0.06 0.02 0.00

GFSFLT2_prec_precacc6_048.txt.gz
Total_Precipitation_Accumulation
0.00 0.00 0.00 0.00 0.00 0.00 0.00 0.00 0.00 0.00 0.00 0.00 0.00 0.00 0.00 0.00 0.01 0.01 0.03 0.05 0.06 0.07 0.09 0.09 0.10 0.10 0.09
0.00 0.00 0.00 0.00 0.00 0.00 0.00 0.00 0.00 0.00 0.00 0.00 0.00 0.00 0.00 0.00 0.01 0.01 0.02 0.02 0.03 0.05 0.07 0.08 0.08 0.08 0.08
0.00 0.00 0.00 0.00 0.00 0.00 0.00 0.00 0.00 0.00 0.00 0.00 0.00 0.00 0.00 0.00 0.00 0.01 0.01 0.01 0.01 0.01 0.02 0.03 0.04 0.06 0.07
0.04 0.05 0.02 0.00 0.00 0.00 0.00 0.00 0.00 0.00 0.00 0.00 0.00 0.00 0.00 0.00 0.00 0.00 0.00 0.00 0.01 0.01 0.01 0.01 0.02 0.02 0.03
0.08 0.01 0.00 0.00 0.00 0.00 0.00 0.00 0.00 0.00 0.00 0.00 0.00 0.00 0.00 0.00 0.00 0.00 0.00 0.00 0.01 0.01 0.02 0.02 0.02 0.03 0.02
0.01 0.00 0.00 0.00 0.00 0.01 0.03 0.01 0.01 0.00 0.00 0.00 0.00 0.00 0.00 0.00 0.00 0.00 0.00 0.00 0.01 0.01 0.02 0.03 0.05 0.05 0.06
0.00 0.00 0.00 0.01 0.05 0.04 0.02 0.03 0.02 0.00 0.00 0.00 0.00 0.00 0.00 0.00 0.00 0.00 0.00 0.00 0.01 0.01 0.02 0.03 0.04 0.04 0.05
0.00 0.00 0.02 0.02 0.01 0.02 0.03 0.02 0.01 0.00 0.00 0.00 0.00 0.00 0.00 0.00 0.00 0.00 0.00 0.00 0.00 0.01 0.02 0.03 0.03 0.04 0.04
0.01 0.01 0.00 0.00 0.00 0.02 0.02 0.02 0.01 0.00 0.00 0.00 0.00 0.00 0.00 0.00 0.00 0.00 0.00 0.00 0.00 0.01 0.02 0.03 0.04 0.04 0.04
0.00 0.00 0.00 0.00 0.00 0.00 0.02 0.07 0.02 0.03 0.00 0.04 0.01 0.01 0.05 0.00 0.00 0.00 0.00 0.00 0.00 0.00 0.02 0.04 0.04 0.06 0.07
0.00 0.00 0.00 0.00 0.00 0.00 0.00 0.07 0.08 0.05 0.00 0.10 0.08 0.01 0.04 0.01 0.00 0.00 0.00 0.00 0.01 0.00 0.00 0.02 0.05 0.09 0.15
0.00 0.00 0.00 0.00 0.00 0.00 0.00 0.00 0.01 0.04 0.00 0.04 0.13 0.05 0.09 0.05 0.01 0.00 0.00 0.00 0.01 0.01 0.00 0.01 0.04 0.10 0.15
0.01 0.00 0.00 0.00 0.00 0.00 0.00 0.00 0.00 0.00 0.00 0.00 0.07 0.06 0.07 0.10 0.12 0.02 0.01 0.00 0.00 0.01 0.05 0.07 0.10 0.10 0.09
0.01 0.00 0.00 0.00 0.00 0.00 0.01 0.00 0.01 0.00 0.00 0.00 0.04 0.10 0.11 0.02 0.09 0.04 0.01 0.07 0.06 0.04 0.07 0.04 0.06 0.05 0.03
0.01 0.01 0.00 0.00 0.00 0.00 0.01 0.02 0.01 0.00 0.00 0.00 0.00 0.01 0.02 0.01 0.01 0.01 0.08 0.07 0.04 0.08 0.10 0.06 0.02 0.03 0.01
0.01 0.01 0.01 0.00 0.01 0.00 0.00 0.01 0.01 0.00 0.00 0.00 0.00 0.01 0.00 0.00 0.01 0.06 0.04 0.07 0.04 0.06 0.11 0.08 0.02 0.03 0.00
0.01 0.01 0.03 0.02 0.01 0.01 0.01 0.01 0.00 0.00 0.00 0.00 0.02 0.04 0.03 0.01 0.00 0.01 0.12 0.09 0.06 0.06 0.08 0.08 0.04 0.01 0.00

GFSFLT2_prec_precacc6_054.txt.gz
Total_Precipitation_Accumulation
0.00 0.00 0.00 0.00 0.00 0.00 0.00 0.00 0.00 0.00 0.00 0.00 0.00 0.00 0.00 0.00 0.00 0.00 0.00 0.01 0.01 0.02 0.03 0.05 0.08 0.09 0.09
0.00 0.00 0.00 0.00 0.00 0.00 0.00 0.00 0.00 0.00 0.00 0.00 0.00 0.00 0.00 0.00 0.00 0.00 0.00 0.00 0.00 0.01 0.02 0.02 0.02 0.03 0.04
0.00 0.00 0.00 0.00 0.00 0.00 0.00 0.00 0.00 0.00 0.00 0.00 0.00 0.00 0.00 0.00 0.00 0.00 0.00 0.00 0.00 0.00 0.00 0.00 0.01 0.01 0.02
0.00 0.00 0.01 0.01 0.00 0.00 0.00 0.00 0.00 0.00 0.00 0.00 0.00 0.00 0.00 0.00 0.00 0.00 0.00 0.00 0.00 0.00 0.00 0.00 0.01 0.01 0.02
0.02 0.02 0.00 0.00 0.00 0.00 0.00 0.00 0.00 0.00 0.00 0.00 0.00 0.00 0.00 0.00 0.00 0.00 0.00 0.00 0.00 0.00 0.00 0.01 0.01 0.02 0.02
0.03 0.01 0.00 0.00 0.00 0.00 0.01 0.02 0.02 0.00 0.00 0.00 0.00 0.00 0.00 0.00 0.00 0.00 0.00 0.00 0.00 0.00 0.00 0.01 0.01 0.02 0.02
0.01 0.00 0.00 0.00 0.00 0.02 0.02 0.01 0.01 0.00 0.00 0.00 0.00 0.00 0.00 0.00 0.00 0.00 0.00 0.00 0.00 0.00 0.00 0.01 0.02 0.02 0.03
0.00 0.00 0.00 0.00 0.03 0.06 0.01 0.00 0.00 0.00 0.00 0.00 0.00 0.00 0.00 0.00 0.00 0.00 0.00 0.00 0.00 0.00 0.00 0.00 0.02 0.03 0.04
0.00 0.00 0.00 0.00 0.00 0.00 0.01 0.02 0.01 0.00 0.00 0.00 0.00 0.00 0.00 0.00 0.00 0.00 0.00 0.00 0.00 0.00 0.00 0.01 0.02 0.03 0.03
0.00 0.00 0.00 0.00 0.00 0.00 0.01 0.08 0.02 0.03 0.00 0.03 0.02 0.00 0.03 0.00 0.00 0.00 0.00 0.00 0.00 0.00 0.00 0.00 0.01 0.01 0.02
0.00 0.00 0.00 0.00 0.00 0.00 0.00 0.04 0.06 0.05 0.00 0.06 0.09 0.01 0.04 0.01 0.00 0.00 0.00 0.00 0.00 0.00 0.00 0.00 0.01 0.03 0.08
0.00 0.00 0.00 0.00 0.00 0.00 0.00 0.00 0.01 0.03 0.00 0.02 0.11 0.04 0.07 0.04 0.00 0.00 0.00 0.00 0.00 0.00 0.01 0.02 0.03 0.03 0.04
0.00 0.00 0.00 0.00 0.00 0.00 0.00 0.00 0.00 0.00 0.00 0.00 0.03 0.04 0.07 0.07 0.04 0.01 0.00 0.00 0.00 0.00 0.01 0.01 0.01 0.02 0.07
0.01 0.00 0.00 0.00 0.00 0.00 0.01 0.00 0.01 0.00 0.00 0.00 0.00 0.04 0.10 0.03 0.04 0.03 0.00 0.01 0.00 0.01 0.01 0.00 0.00 0.03 0.05
0.01 0.01 0.00 0.00 0.00 0.00 0.01 0.02 0.03 0.01 0.00 0.00 0.00 0.00 0.03 0.05 0.05 0.00 0.00 0.00 0.00 0.01 0.03 0.03 0.00 0.00 0.01
0.01 0.01 0.02 0.01 0.01 0.00 0.00 0.01 0.02 0.01 0.01 0.00 0.00 0.01 0.00 0.00 0.01 0.01 0.01 0.00 0.00 0.01 0.02 0.06 0.02 0.00 0.01
0.02 0.01 0.02 0.02 0.00 0.01 0.01 0.01 0.01 0.00 0.00 0.00 0.01 0.04 0.06 0.01 0.00 0.00 0.04 0.02 0.01 0.01 0.01 0.03 0.06 0.01 0.02

GFSFLT2_prec_precacc6_060.txt.gz
Total_Precipitation_Accumulation
0.00 0.00 0.00 0.00 0.00 0.00 0.00 0.00 0.00 0.00 0.00 0.00 0.00 0.00 0.00 0.00 0.00 0.00 0.01 0.01 0.02 0.02 0.03 0.06 0.08 0.09 0.09
0.00 0.00 0.00 0.00 0.00 0.00 0.00 0.00 0.00 0.00 0.00 0.00 0.00 0.00 0.00 0.00 0.00 0.00 0.00 0.00 0.01 0.01 0.00 0.01 0.01 0.03 0.06
0.00 0.00 0.00 0.00 0.00 0.00 0.00 0.00 0.00 0.00 0.00 0.00 0.00 0.00 0.00 0.00 0.00 0.00 0.00 0.00 0.00 0.00 0.00 0.00 0.01 0.02 0.02
0.00 0.00 0.00 0.00 0.00 0.00 0.00 0.00 0.00 0.00 0.00 0.00 0.00 0.00 0.00 0.00 0.00 0.00 0.00 0.00 0.00 0.00 0.01 0.01 0.02 0.02 0.03
0.00 0.00 0.00 0.00 0.00 0.00 0.00 0.00 0.00 0.00 0.00 0.00 0.00 0.00 0.00 0.00 0.00 0.00 0.00 0.00 0.00 0.00 0.01 0.01 0.02 0.03 0.03
0.00 0.01 0.00 0.00 0.00 0.00 0.00 0.00 0.01 0.00 0.00 0.00 0.00 0.00 0.00 0.00 0.00 0.00 0.00 0.00 0.00 0.00 0.01 0.01 0.02 0.02 0.03
0.00 0.00 0.00 0.00 0.00 0.02 0.03 0.03 0.01 0.00 0.00 0.00 0.00 0.00 0.00 0.00 0.00 0.00 0.00 0.00 0.00 0.00 0.00 0.01 0.01 0.01 0.02
0.00 0.00 0.00 0.00 0.02 0.07 0.03 0.00 0.00 0.00 0.00 0.00 0.00 0.00 0.00 0.00 0.00 0.00 0.00 0.00 0.00 0.00 0.00 0.00 0.01 0.01 0.01
0.00 0.00 0.00 0.00 0.00 0.00 0.00 0.01 0.01 0.00 0.00 0.00 0.00 0.00 0.00 0.00 0.00 0.00 0.00 0.00 0.00 0.00 0.00 0.00 0.00 0.01 0.01
0.00 0.00 0.00 0.00 0.00 0.00 0.00 0.04 0.03 0.03 0.00 0.02 0.01 0.00 0.02 0.00 0.00 0.00 0.00 0.00 0.00 0.00 0.00 0.00 0.00 0.00 0.00
0.00 0.00 0.00 0.00 0.00 0.00 0.00 0.02 0.05 0.04 0.00 0.07 0.08 0.01 0.04 0.01 0.00 0.00 0.00 0.00 0.00 0.00 0.00 0.00 0.00 0.00 0.02
0.00 0.00 0.00 0.00 0.00 0.00 0.00 0.00 0.00 0.02 0.00 0.01 0.11 0.03 0.06 0.03 0.00 0.00 0.00 0.00 0.00 0.00 0.00 0.00 0.00 0.00 0.01
0.00 0.00 0.00 0.00 0.00 0.00 0.00 0.00 0.00 0.00 0.00 0.00 0.03 0.03 0.05 0.05 0.03 0.01 0.00 0.00 0.00 0.00 0.00 0.00 0.00 0.00 0.01
0.00 0.00 0.00 0.00 0.00 0.00 0.01 0.00 0.01 0.00 0.00 0.00 0.00 0.02 0.06 0.03 0.03 0.03 0.00 0.00 0.00 0.00 0.00 0.00 0.00 0.00 0.00
0.00 0.01 0.00 0.00 0.00 0.00 0.00 0.02 0.03 0.00 0.00 0.00 0.00 0.00 0.00 0.01 0.03 0.01 0.00 0.00 0.00 0.00 0.00 0.01 0.00 0.00 0.00
0.01 0.01 0.01 0.01 0.01 0.01 0.01 0.02 0.02 0.00 0.00 0.00 0.00 0.01 0.00 0.00 0.00 0.00 0.00 0.00 0.00 0.00 0.00 0.04 0.02 0.00 0.00
0.01 0.01 0.02 0.03 0.01 0.01 0.01 0.01 0.01 0.00 0.00 0.00 0.02 0.06 0.07 0.01 0.00 0.00 0.02 0.02 0.00 0.00 0.00 0.01 0.03 0.00 0.00

GFSFLT2_prec_precacc6_063.txt.gz
Total_Precipitation_Accumulation
0.00 0.00 0.00 0.00 0.00 0.00 0.00 0.00 0.00 0.00 0.00 0.00 0.00 0.00 0.00 0.00 0.00 0.00 0.01 0.01 0.02 0.02 0.03 0.04 0.05 0.06 0.06
0.00 0.00 0.00 0.00 0.00 0.00 0.00 0.00 0.00 0.00 0.00 0.00 0.00 0.00 0.00 0.00 0.00 0.00 0.00 0.00 0.00 0.00 0.00 0.01 0.01 0.02 0.05
0.00 0.00 0.00 0.00 0.00 0.00 0.00 0.00 0.00 0.00 0.00 0.00 0.00 0.00 0.00 0.00 0.00 0.00 0.00 0.00 0.00 0.00 0.00 0.00 0.01 0.02 0.03
0.00 0.00 0.00 0.00 0.00 0.00 0.00 0.00 0.00 0.00 0.00 0.00 0.00 0.00 0.00 0.00 0.00 0.00 0.00 0.00 0.00 0.00 0.01 0.01 0.02 0.03 0.03
0.00 0.00 0.00 0.00 0.00 0.00 0.00 0.00 0.00 0.00 0.00 0.00 0.00 0.00 0.00 0.00 0.00 0.00 0.00 0.00 0.00 0.00 0.01 0.01 0.02 0.03 0.03
0.00 0.00 0.00 0.00 0.00 0.00 0.00 0.00 0.01 0.00 0.00 0.00 0.00 0.00 0.00 0.00 0.00 0.00 0.00 0.00 0.00 0.00 0.01 0.01 0.02 0.03 0.04
0.00 0.00 0.00 0.00 0.00 0.01 0.03 0.03 0.01 0.00 0.00 0.00 0.00 0.00 0.00 0.00 0.00 0.00 0.00 0.00 0.00 0.00 0.00 0.01 0.01 0.02 0.02
0.00 0.00 0.00 0.00 0.03 0.06 0.03 0.00 0.00 0.00 0.00 0.00 0.00 0.00 0.00 0.00 0.00 0.00 0.00 0.00 0.00 0.00 0.00 0.00 0.00 0.01 0.01
0.00 0.00 0.00 0.00 0.00 0.00 0.00 0.01 0.01 0.00 0.00 0.00 0.00 0.00 0.00 0.00 0.00 0.00 0.00 0.00 0.00 0.00 0.00 0.00 0.00 0.00 0.01
0.00 0.00 0.00 0.00 0.00 0.00 0.00 0.03 0.03 0.03 0.00 0.01 0.01 0.01 0.02 0.00 0.00 0.00 0.00 0.00 0.00 0.00 0.00 0.00 0.00 0.00 0.00
0.00 0.00 0.00 0.00 0.00 0.00 0.00 0.01 0.05 0.04 0.00 0.07 0.07 0.01 0.04 0.01 0.00 0.00 0.00 0.00 0.00 0.00 0.00 0.00 0.00 0.00 0.00
0.00 0.00 0.00 0.00 0.00 0.00 0.00 0.00 0.01 0.03 0.00 0.03 0.12 0.02 0.06 0.03 0.00 0.00 0.00 0.00 0.00 0.00 0.00 0.00 0.00 0.00 0.01
0.00 0.00 0.00 0.00 0.00 0.00 0.00 0.00 0.00 0.00 0.00 0.01 0.06 0.03 0.06 0.05 0.02 0.01 0.00 0.00 0.00 0.00 0.00 0.00 0.00 0.00 0.00
0.00 0.00 0.00 0.00 0.00 0.00 0.00 0.00 0.01 0.00 0.00 0.00 0.00 0.02 0.06 0.02 0.02 0.02 0.00 0.00 0.00 0.00 0.00 0.00 0.00 0.00 0.00
0.00 0.01 0.00 0.00 0.00 0.00 0.00 0.01 0.02 0.00 0.00 0.00 0.00 0.00 0.00 0.01 0.02 0.01 0.00 0.00 0.00 0.00 0.00 0.01 0.00 0.00 0.00
0.00 0.01 0.01 0.00 0.01 0.01 0.00 0.02 0.01 0.00 0.00 0.00 0.00 0.01 0.00 0.00 0.00 0.00 0.00 0.00 0.00 0.00 0.00 0.03 0.01 0.00 0.00
0.01 0.01 0.02 0.02 0.00 0.01 0.01 0.01 0.01 0.00 0.00 0.00 0.03 0.06 0.07 0.01 0.00 0.00 0.06 0.06 0.01 0.01 0.00 0.00 0.01 0.00 0.00

GFSFLT2_prec_precacc6_069.txt.gz
Total_Precipitation_Accumulation
0.00 0.00 0.00 0.00 0.00 0.00 0.00 0.00 0.00 0.00 0.00 0.00 0.00 0.00 0.00 0.00 0.00 0.00 0.01 0.01 0.02 0.02 0.03 0.04 0.04 0.04 0.03
0.00 0.00 0.00 0.00 0.00 0.00 0.00 0.00 0.00 0.00 0.00 0.00 0.00 0.00 0.00 0.00 0.00 0.00 0.01 0.02 0.02 0.01 0.01 0.01 0.01 0.01 0.01
0.00 0.00 0.00 0.00 0.00 0.00 0.00 0.00 0.00 0.00 0.00 0.00 0.00 0.00 0.00 0.00 0.00 0.00 0.00 0.00 0.00 0.00 0.00 0.00 0.00 0.00 0.01
0.00 0.00 0.00 0.00 0.00 0.00 0.00 0.00 0.00 0.00 0.00 0.00 0.00 0.00 0.00 0.00 0.00 0.00 0.00 0.00 0.00 0.00 0.00 0.00 0.00 0.01 0.01
0.00 0.00 0.00 0.00 0.00 0.00 0.00 0.00 0.00 0.00 0.00 0.00 0.00 0.00 0.00 0.00 0.00 0.00 0.00 0.00 0.00 0.00 0.00 0.01 0.02 0.02 0.03
0.00 0.00 0.00 0.00 0.00 0.00 0.00 0.01 0.01 0.00 0.00 0.00 0.00 0.00 0.00 0.00 0.00 0.00 0.00 0.00 0.00 0.00 0.01 0.01 0.02 0.02 0.02
0.00 0.00 0.00 0.00 0.00 0.01 0.01 0.01 0.01 0.00 0.00 0.00 0.00 0.00 0.00 0.00 0.00 0.00 0.00 0.00 0.00 0.00 0.00 0.01 0.01 0.02 0.02
0.00 0.00 0.00 0.00 0.01 0.02 0.01 0.00 0.00 0.00 0.00 0.00 0.00 0.00 0.00 0.00 0.00 0.00 0.00 0.00 0.00 0.00 0.00 0.00 0.01 0.01 0.01
0.00 0.00 0.00 0.00 0.00 0.00 0.00 0.00 0.00 0.00 0.00 0.00 0.00 0.00 0.00 0.00 0.00 0.00 0.00 0.00 0.00 0.00 0.00 0.00 0.00 0.00 0.00
0.00 0.00 0.00 0.00 0.00 0.00 0.00 0.01 0.02 0.02 0.00 0.01 0.00 0.01 0.01 0.00 0.00 0.00 0.00 0.00 0.00 0.00 0.00 0.00 0.00 0.00 0.00
0.00 0.00 0.00 0.00 0.00 0.00 0.00 0.00 0.02 0.02 0.00 0.06 0.06 0.01 0.04 0.01 0.00 0.00 0.00 0.00 0.00 0.00 0.00 0.00 0.00 0.00 0.00
0.00 0.00 0.00 0.00 0.00 0.00 0.00 0.00 0.00 0.01 0.00 0.02 0.10 0.02 0.05 0.03 0.00 0.00 0.00 0.00 0.00 0.00 0.00 0.00 0.00 0.00 0.01
0.00 0.00 0.00 0.00 0.00 0.00 0.00 0.00 0.00 0.00 0.00 0.00 0.02 0.02 0.05 0.04 0.01 0.00 0.00 0.00 0.00 0.00 0.00 0.00 0.00 0.00 0.00
0.00 0.00 0.00 0.00 0.00 0.00 0.00 0.00 0.00 0.00 0.00 0.00 0.00 0.02 0.05 0.02 0.02 0.02 0.00 0.00 0.00 0.00 0.00 0.00 0.00 0.00 0.00
0.00 0.00 0.00 0.00 0.00 0.00 0.00 0.01 0.02 0.00 0.00 0.00 0.00 0.00 0.01 0.02 0.04 0.00 0.00 0.00 0.00 0.00 0.00 0.01 0.00 0.00 0.00
0.00 0.00 0.00 0.00 0.00 0.00 0.00 0.01 0.01 0.00 0.00 0.00 0.00 0.01 0.00 0.00 0.01 0.02 0.01 0.00 0.00 0.00 0.01 0.04 0.02 0.00 0.00
0.00 0.00 0.01 0.01 0.00 0.00 0.00 0.00 0.00 0.00 0.00 0.00 0.04 0.07 0.05 0.01 0.00 0.02 0.20 0.08 0.00 0.00 0.00 0.00 0.01 0.00 0.00

GFSFLT2_prec_precacc6_072.txt.gz
Total_Precipitation_Accumulation
0.11 0.05 0.02 0.01 0.00 0.00 0.00 0.00 0.00 0.00 0.00 0.00 0.00 0.00 0.00 0.00 0.00 0.00 0.00 0.01 0.02 0.02 0.03 0.04 0.05 0.05 0.05
0.01 0.01 0.00 0.00 0.00 0.00 0.00 0.00 0.00 0.00 0.00 0.00 0.00 0.00 0.00 0.00 0.00 0.00 0.01 0.01 0.01 0.01 0.01 0.01 0.01 0.01 0.02
0.00 0.00 0.00 0.00 0.00 0.00 0.00 0.00 0.00 0.00 0.00 0.00 0.00 0.00 0.00 0.00 0.00 0.00 0.00 0.00 0.00 0.00 0.00 0.00 0.00 0.00 0.01
0.00 0.00 0.00 0.00 0.00 0.00 0.00 0.00 0.00 0.00 0.00 0.00 0.00 0.00 0.00 0.00 0.00 0.00 0.00 0.00 0.00 0.00 0.00 0.00 0.00 0.01 0.01
0.00 0.00 0.00 0.00 0.00 0.00 0.00 0.00 0.00 0.00 0.00 0.00 0.00 0.00 0.00 0.00 0.00 0.00 0.00 0.00 0.00 0.00 0.01 0.01 0.02 0.03 0.03
0.00 0.00 0.00 0.00 0.00 0.00 0.00 0.00 0.00 0.00 0.00 0.00 0.00 0.00 0.00 0.00 0.00 0.00 0.00 0.00 0.00 0.00 0.00 0.01 0.02 0.03 0.03
0.00 0.00 0.00 0.00 0.00 0.00 0.00 0.01 0.00 0.00 0.00 0.00 0.00 0.00 0.00 0.00 0.00 0.00 0.00 0.00 0.00 0.00 0.00 0.01 0.01 0.02 0.03
0.00 0.00 0.00 0.00 0.00 0.01 0.00 0.00 0.00 0.00 0.00 0.00 0.00 0.00 0.00 0.00 0.00 0.00 0.00 0.00 0.00 0.00 0.00 0.00 0.01 0.01 0.02
0.00 0.00 0.00 0.00 0.00 0.00 0.00 0.00 0.00 0.00 0.00 0.00 0.00 0.00 0.00 0.00 0.00 0.00 0.00 0.00 0.00 0.00 0.00 0.00 0.00 0.00 0.00
0.00 0.00 0.00 0.00 0.00 0.00 0.00 0.00 0.01 0.01 0.00 0.02 0.00 0.00 0.01 0.00 0.00 0.00 0.00 0.00 0.00 0.00 0.00 0.00 0.00 0.00 0.00
0.00 0.00 0.00 0.00 0.00 0.00 0.00 0.00 0.02 0.02 0.00 0.05 0.04 0.00 0.02 0.00 0.00 0.00 0.00 0.00 0.00 0.00 0.00 0.00 0.00 0.00 0.00
0.00 0.00 0.00 0.00 0.00 0.00 0.00 0.00 0.00 0.01 0.00 0.01 0.06 0.01 0.04 0.02 0.00 0.00 0.00 0.00 0.00 0.00 0.00 0.00 0.00 0.00 0.00
0.00 0.00 0.00 0.00 0.00 0.00 0.00 0.00 0.00 0.00 0.00 0.00 0.01 0.01 0.04 0.04 0.01 0.00 0.00 0.00 0.00 0.00 0.00 0.00 0.00 0.00 0.00
0.00 0.00 0.00 0.00 0.00 0.00 0.00 0.00 0.00 0.00 0.00 0.00 0.00 0.02 0.03 0.01 0.01 0.01 0.00 0.00 0.00 0.00 0.00 0.00 0.00 0.00 0.00
0.00 0.00 0.00 0.00 0.00 0.00 0.00 0.01 0.01 0.00 0.00 0.00 0.00 0.00 0.01 0.01 0.02 0.00 0.00 0.00 0.00 0.00 0.01 0.01 0.00 0.00 0.00
0.00 0.00 0.00 0.00 0.00 0.00 0.00 0.01 0.01 0.00 0.00 0.00 0.00 0.01 0.00 0.00 0.00 0.01 0.01 0.00 0.00 0.00 0.01 0.04 0.01 0.00 0.00
0.00 0.00 0.01 0.01 0.00 0.00 0.00 0.00 0.00 0.00 0.00 0.00 0.02 0.04 0.04 0.01 0.00 0.01 0.11 0.04 0.00 0.00 0.00 0.01 0.01 0.00 0.00

GFSFLT2_prec_precacc6_075.txt.gz
Total_Precipitation_Accumulation
0.22 0.18 0.12 0.06 0.02 0.00 0.00 0.00 0.00 0.00 0.00 0.00 0.00 0.00 0.00 0.00 0.00 0.00 0.00 0.00 0.00 0.01 0.02 0.02 0.03 0.04 0.04
0.04 0.02 0.01 0.00 0.00 0.00 0.00 0.00 0.00 0.00 0.00 0.00 0.00 0.00 0.00 0.00 0.00 0.00 0.00 0.00 0.00 0.00 0.00 0.00 0.01 0.01 0.01
0.00 0.00 0.00 0.00 0.00 0.00 0.00 0.00 0.00 0.00 0.00 0.00 0.00 0.00 0.00 0.00 0.00 0.00 0.00 0.00 0.00 0.00 0.00 0.00 0.00 0.00 0.00
0.00 0.00 0.00 0.00 0.00 0.00 0.00 0.00 0.00 0.00 0.00 0.00 0.00 0.00 0.00 0.00 0.00 0.00 0.00 0.00 0.00 0.00 0.00 0.00 0.00 0.00 0.01
0.00 0.00 0.00 0.00 0.00 0.00 0.00 0.00 0.00 0.00 0.00 0.00 0.00 0.00 0.00 0.00 0.00 0.00 0.00 0.00 0.00 0.00 0.01 0.01 0.01 0.02 0.03
0.00 0.00 0.00 0.00 0.00 0.00 0.00 0.00 0.00 0.00 0.00 0.00 0.00 0.00 0.00 0.00 0.00 0.00 0.00 0.00 0.00 0.00 0.00 0.01 0.01 0.02 0.02
0.00 0.00 0.00 0.00 0.00 0.00 0.00 0.00 0.00 0.00 0.00 0.00 0.00 0.00 0.00 0.00 0.00 0.00 0.00 0.00 0.00 0.00 0.00 0.00 0.01 0.01 0.03
0.00 0.00 0.00 0.00 0.00 0.00 0.00 0.00 0.00 0.00 0.00 0.00 0.00 0.00 0.00 0.00 0.00 0.00 0.00 0.00 0.00 0.00 0.00 0.00 0.00 0.01 0.01
0.00 0.00 0.00 0.00 0.00 0.00 0.00 0.00 0.00 0.00 0.00 0.00 0.00 0.00 0.00 0.00 0.00 0.00 0.00 0.00 0.00 0.00 0.00 0.00 0.00 0.00 0.00
0.00 0.00 0.00 0.00 0.00 0.00 0.00 0.00 0.01 0.01 0.00 0.02 0.00 0.00 0.01 0.00 0.00 0.00 0.00 0.00 0.00 0.00 0.00 0.00 0.00 0.00 0.00
0.00 0.00 0.00 0.00 0.00 0.00 0.00 0.00 0.01 0.01 0.00 0.04 0.03 0.00 0.02 0.00 0.00 0.00 0.00 0.00 0.00 0.00 0.00 0.00 0.00 0.00 0.00
0.00 0.00 0.00 0.00 0.00 0.00 0.00 0.00 0.00 0.00 0.00 0.01 0.03 0.01 0.03 0.02 0.00 0.00 0.00 0.00 0.00 0.00 0.00 0.00 0.00 0.00 0.00
0.00 0.00 0.00 0.00 0.00 0.00 0.00 0.00 0.00 0.00 0.00 0.00 0.01 0.01 0.03 0.03 0.01 0.00 0.00 0.00 0.00 0.00 0.00 0.00 0.00 0.00 0.00
0.00 0.00 0.00 0.00 0.00 0.00 0.00 0.00 0.00 0.00 0.00 0.00 0.00 0.02 0.03 0.01 0.01 0.01 0.00 0.00 0.00 0.00 0.00 0.00 0.00 0.00 0.00
0.00 0.00 0.00 0.00 0.00 0.00 0.00 0.01 0.01 0.00 0.00 0.00 0.00 0.00 0.01 0.02 0.02 0.00 0.00 0.00 0.00 0.00 0.01 0.01 0.00 0.00 0.00
0.00 0.00 0.00 0.00 0.00 0.00 0.00 0.01 0.01 0.00 0.00 0.00 0.00 0.01 0.00 0.00 0.00 0.01 0.02 0.01 0.00 0.00 0.01 0.04 0.01 0.00 0.00
0.00 0.00 0.00 0.00 0.00 0.00 0.00 0.00 0.00 0.00 0.00 0.00 0.01 0.03 0.05 0.01 0.00 0.00 0.02 0.01 0.00 0.01 0.00 0.01 0.01 0.00 0.00

GFSFLT2_prec_precacc6_078.txt.gz
Total_Precipitation_Accumulation
0.21 0.17 0.11 0.05 0.01 0.00 0.00 0.00 0.00 0.00 0.00 0.00 0.00 0.00 0.00 0.00 0.00 0.00 0.00 0.00 0.00 0.00 0.00 0.01 0.01 0.02 0.02
0.03 0.01 0.00 0.00 0.00 0.00 0.00 0.00 0.00 0.00 0.00 0.00 0.00 0.00 0.00 0.00 0.00 0.00 0.00 0.00 0.00 0.00 0.00 0.00 0.00 0.00 0.00
0.00 0.00 0.00 0.00 0.00 0.00 0.00 0.00 0.00 0.00 0.00 0.00 0.00 0.00 0.00 0.00 0.00 0.00 0.00 0.00 0.00 0.00 0.00 0.00 0.00 0.00 0.00
0.00 0.00 0.00 0.00 0.00 0.00 0.00 0.00 0.00 0.00 0.00 0.00 0.00 0.00 0.00 0.00 0.00 0.00 0.00 0.00 0.00 0.00 0.00 0.00 0.00 0.00 0.01
0.00 0.00 0.00 0.00 0.00 0.00 0.00 0.00 0.00 0.00 0.00 0.00 0.00 0.00 0.00 0.00 0.00 0.00 0.00 0.00 0.00 0.00 0.00 0.00 0.00 0.00 0.01
0.00 0.00 0.00 0.00 0.00 0.00 0.00 0.00 0.00 0.00 0.00 0.00 0.00 0.00 0.00 0.00 0.00 0.00 0.00 0.00 0.00 0.00 0.00 0.00 0.00 0.00 0.01
0.00 0.00 0.00 0.00 0.00 0.00 0.00 0.00 0.00 0.00 0.00 0.00 0.00 0.00 0.00 0.00 0.00 0.00 0.00 0.00 0.00 0.00 0.00 0.00 0.00 0.00 0.01
0.00 0.00 0.00 0.00 0.00 0.00 0.00 0.00 0.00 0.00 0.00 0.00 0.00 0.00 0.00 0.00 0.00 0.00 0.00 0.00 0.00 0.00 0.00 0.00 0.00 0.00 0.00
0.00 0.00 0.00 0.00 0.00 0.00 0.00 0.00 0.00 0.00 0.00 0.00 0.00 0.00 0.00 0.00 0.00 0.00 0.00 0.00 0.00 0.00 0.00 0.00 0.00 0.00 0.00
0.00 0.00 0.00 0.00 0.00 0.00 0.00 0.00 0.00 0.00 0.00 0.00 0.00 0.00 0.01 0.00 0.00 0.00 0.00 0.00 0.00 0.00 0.00 0.00 0.00 0.00 0.00
0.00 0.00 0.00 0.00 0.00 0.00 0.00 0.00 0.01 0.01 0.00 0.03 0.02 0.00 0.02 0.00 0.00 0.00 0.00 0.00 0.00 0.00 0.00 0.00 0.00 0.00 0.00
0.00 0.00 0.00 0.00 0.00 0.00 0.00 0.00 0.00 0.00 0.00 0.01 0.03 0.01 0.03 0.02 0.00 0.00 0.00 0.00 0.00 0.00 0.00 0.00 0.00 0.00 0.00
0.00 0.00 0.00 0.00 0.00 0.00 0.00 0.00 0.00 0.00 0.00 0.00 0.01 0.02 0.04 0.03 0.01 0.00 0.00 0.00 0.00 0.00 0.00 0.00 0.00 0.00 0.00
0.00 0.00 0.00 0.00 0.00 0.00 0.00 0.00 0.00 0.00 0.00 0.00 0.00 0.03 0.04 0.02 0.02 0.01 0.00 0.00 0.00 0.00 0.00 0.00 0.00 0.00 0.00
0.00 0.00 0.00 0.00 0.00 0.00 0.00 0.00 0.01 0.00 0.00 0.00 0.00 0.00 0.02 0.02 0.02 0.00 0.00 0.00 0.00 0.00 0.01 0.01 0.00 0.00 0.00
0.00 0.00 0.00 0.00 0.00 0.00 0.00 0.01 0.01 0.00 0.00 0.00 0.00 0.01 0.00 0.00 0.00 0.00 0.01 0.01 0.00 0.00 0.01 0.02 0.00 0.00 0.00
0.00 0.00 0.00 0.01 0.01 0.00 0.00 0.00 0.01 0.00 0.00 0.00 0.00 0.02 0.05 0.01 0.00 0.00 0.01 0.01 0.00 0.00 0.00 0.00 0.00 0.00 0.00